User: anonymous   Login
Location: Unnamed
(51.8936°N, 11.0665°E)
Time: 18:13:06
(UTC+02:00)
Language:

XW-2B - Orbit

View from above orbital plane
View from above orbital plane
View from above satellite
View from above satellite

Ground track
Ground track

The orbit data is extracted from the following two-line orbital elements,

1 40911U 15049N   21268.21313749  .00001284  00000-0  67846-4 0  9993
2 40911  97.4879 269.8492 0013145 191.7921 229.6371 15.17239429332613
Epoch (UTC): 25 September 2021 05:06:55
Eccentricity: 0.0013145
inclination: 97.4879°
perigee height: 505 km
apogee height: 523 km
right ascension of ascending node: 269.8492°
argument of perigee: 191.7921°
revolutions per day: 15.17239429
mean anomaly at epoch: 229.6371°
orbit number at epoch: 33261

The dashed part of the orbit path shows where the satellite is in the earth's shadow,  

DLR